Date String (YYYY-MM-DD hh:mm:ss) UTC,Instrument flags,absolute air pressure of the measurement (hPa),sample flow rate (lpm),inlet stack bypass flow (lpm),air temperature of the measurement (°C),ambient temperature measured by the external sensor (°C),aerosol sample conditioner tube jacket temperature (°C),OPC LED temperature (°C),internal box temperature (°C),relative humidity of the measurement (%),span deviation,mass concentration of particles derived from Lorenz-Mie calculation of OPC scattering (μg/m³),mass concentration of particles derived from Lorenz-Mie calculation of OPC scattering (μg/m³),mass concentration of particles derived from Lorenz-Mie calculation of OPC scattering (μg/m³)
DateTimeUTC,F1_M11,P_M11,Q1_M11,Q2_M11,T1_M11,T2_M11,T3_M11,T4_M11,T5_M11,U1_M11,ZSPAN_M11,X2_M11,X0_M11,X1_M11
2024-02-28 13:00:00,SystemResetWarning,0827.0,5.00,000.00,019.2,019.3,000.0,027.5,021.2,08.2,0000.0,0001.96,0004.57,0001.52
2024-02-28 13:01:00,SystemResetWarning,0826.9,4.99,000.00,019.2,019.1,000.0,027.5,021.0,08.2,0000.0,0001.95,0003.16,0001.51
2024-02-28 13:02:00,SystemResetWarning,0827.0,5.00,000.00,019.1,018.9,000.0,027.4,020.9,08.2,0000.0,0001.93,0002.89,0001.52
2024-02-28 13:03:00,SystemResetWarning,0827.0,5.00,000.00,019.1,018.7,000.0,027.4,020.8,08.2,0000.0,0001.93,0003.71,0001.51
2024-02-28 13:04:00,SystemResetWarning,0827.0,5.01,000.00,019.0,018.5,000.0,027.4,020.7,08.3,0000.0,0001.91,0004.23,0001.50
2024-02-28 13:05:00,SystemResetWarning,0827.1,5.01,000.00,019.0,018.4,000.0,027.4,020.6,08.3,0000.0,0001.97,0005.10,0001.52
2024-02-28 13:06:00,SystemResetWarning,0827.0,4.99,000.00,019.0,018.3,000.0,027.4,020.6,08.3,0000.0,0002.00,0005.16,0001.53
2024-02-28 13:07:00,SystemResetWarning,0827.0,5.00,000.00,018.9,018.2,000.0,027.4,020.5,08.3,0000.0,0002.01,0005.22,0001.53
2024-02-28 13:08:00,SystemResetWarning,0827.0,4.99,000.00,018.9,018.1,000.0,027.3,020.5,08.4,0000.0,0001.99,0005.23,0001.54
2024-02-28 13:09:00,SystemResetWarning,0826.9,4.99,000.00,018.8,018.1,000.0,027.3,020.4,08.3,0000.0,0002.00,0006.03,0001.53
2024-02-28 13:10:00,SystemResetWarning,0827.0,5.01,000.00,018.8,018.0,000.0,027.3,020.5,08.3,0000.0,0002.06,0006.90,0001.53
2024-02-28 13:11:00,SystemResetWarning,0827.1,5.01,000.00,018.8,018.4,000.0,027.4,020.7,08.2,0000.0,0002.02,0006.78,0001.53
2024-02-28 13:12:00,SystemResetWarning,0827.2,4.98,000.00,019.0,019.2,000.0,027.5,021.2,08.1,0000.0,0002.06,0006.85,0001.53
2024-02-28 13:13:00,SystemResetWarning,0827.1,4.99,000.00,019.1,019.3,000.0,027.5,021.2,08.0,0000.0,0002.11,0006.96,0001.53
2024-02-28 13:14:00,SystemResetWarning,0827.1,4.99,000.00,019.1,019.1,000.0,027.4,021.0,08.0,0000.0,0002.13,0006.82,0001.54
2024-02-28 13:15:00,SystemResetWarning,0827.1,5.00,000.00,019.1,019.0,000.0,027.4,020.9,07.9,0000.0,0002.16,0006.18,0001.54
2024-02-28 13:16:00,SystemResetWarning,0827.1,5.00,000.00,019.1,018.8,000.0,027.4,020.8,07.8,0000.0,0002.14,0005.20,0001.55
2024-02-28 13:17:00,SystemResetWarning,0827.1,5.00,000.00,019.0,018.6,000.0,027.4,020.7,07.8,0000.0,0002.09,0005.22,0001.53
2024-02-28 13:18:00,SystemResetWarning,0827.1,5.00,000.00,019.0,018.5,000.0,027.4,020.6,07.8,0000.0,0002.06,0005.46,0001.52
2024-02-28 13:19:00,SystemResetWarning,0827.2,5.01,000.00,018.9,018.3,000.0,027.3,020.5,07.7,0000.0,0002.04,0005.96,0001.51
2024-02-28 13:20:00,SystemResetWarning,0827.2,5.00,000.00,018.9,018.2,000.0,027.3,020.4,07.7,0000.0,0002.01,0006.27,0001.51
2024-02-28 13:21:00,SystemResetWarning,0827.1,5.00,000.00,018.8,018.1,000.0,027.3,020.4,07.8,0000.0,0002.02,0005.65,0001.51
2024-02-28 13:22:00,SystemResetWarning,0827.2,5.00,000.00,018.8,018.0,000.0,027.3,020.3,07.9,0000.0,0002.02,0005.68,0001.49
2024-02-28 13:23:00,SystemResetWarning,0827.1,4.99,000.00,018.7,018.0,000.0,027.3,020.3,07.9,0000.0,0002.02,0005.70,0001.49
2024-02-28 13:24:00,SystemResetWarning,0827.1,4.99,000.00,018.7,017.9,000.0,027.2,020.3,07.8,0000.0,0002.04,0006.02,0001.49
2024-02-28 13:25:00,SystemResetWarning,0827.1,5.01,000.00,018.7,017.9,000.0,027.2,020.3,07.8,0000.0,0002.07,0007.00,0001.48
2024-02-28 13:26:00,SystemResetWarning,0827.1,5.01,000.00,018.6,017.8,000.0,027.2,020.3,07.9,0000.0,0002.05,0007.09,0001.47
2024-02-28 13:27:00,SystemResetWarning,0827.1,5.00,000.00,018.6,018.0,000.0,027.3,020.3,07.8,0000.0,0002.10,0007.39,0001.46
2024-02-28 13:28:00,SystemResetWarning,0827.1,5.00,000.00,018.7,018.6,000.0,027.4,020.8,07.7,0000.0,0002.17,0008.18,0001.46
2024-02-28 13:29:00,SystemResetWarning,0827.2,4.99,000.00,018.9,019.2,000.0,027.4,021.1,07.7,0000.0,0002.18,0008.61,0001.46
2024-02-28 13:30:00,SystemResetWarning,0827.2,4.99,000.00,019.0,019.0,000.0,027.3,021.0,07.6,0000.0,0002.22,0008.50,0001.44
2024-02-28 13:31:00,SystemResetWarning,0827.1,5.00,000.00,019.0,018.9,000.0,027.3,020.8,07.6,0000.0,0002.25,0008.09,0001.44
2024-02-28 13:32:00,SystemResetWarning,0827.1,5.00,000.00,018.9,018.7,000.0,027.3,020.7,07.6,0000.0,0002.21,0008.50,0001.43
2024-02-28 13:33:00,SystemResetWarning,0827.1,5.00,000.00,018.9,018.5,000.0,027.3,020.6,07.6,0000.0,0002.21,0008.81,0001.43
2024-02-28 13:34:00,SystemResetWarning,0827.1,5.00,000.00,018.9,018.4,000.0,027.2,020.6,07.5,0000.0,0002.19,0009.48,0001.42
2024-02-28 13:35:00,SystemResetWarning,0827.2,5.01,000.00,018.8,018.3,000.0,027.2,020.5,07.5,0000.0,0002.25,0010.50,0001.42
2024-02-28 13:36:00,SystemResetWarning,0827.2,5.01,000.00,018.8,018.2,000.0,027.2,020.5,07.5,0000.0,0002.29,0010.36,0001.40
2024-02-28 13:37:00,SystemResetWarning,0827.2,4.99,000.00,018.8,018.1,000.0,027.2,020.4,07.5,0000.0,0002.35,0010.46,0001.40
2024-02-28 13:38:00,SystemResetWarning,0827.2,5.00,000.00,018.7,018.0,000.0,027.2,020.4,07.6,0000.0,0002.38,0010.44,0001.39
2024-02-28 13:39:00,SystemResetWarning,0827.2,4.99,000.00,018.7,018.0,000.0,027.2,020.4,07.5,0000.0,0002.36,0009.90,0001.38
2024-02-28 13:40:00,SystemResetWarning,0827.2,5.00,000.00,018.7,017.9,000.0,027.2,020.3,07.5,0000.0,0002.38,0009.81,0001.38
2024-02-28 13:41:00,SystemResetWarning,0827.3,5.01,000.00,018.7,018.1,000.0,027.3,020.4,07.5,0000.0,0002.38,0009.88,0001.38
2024-02-28 13:42:00,SystemResetWarning,0827.4,5.01,000.00,018.8,018.9,000.0,027.4,020.9,07.4,0000.0,0002.43,0010.29,0001.38
2024-02-28 13:43:00,SystemResetWarning,0827.4,4.98,000.00,019.0,019.3,000.0,027.4,021.2,07.3,0000.0,0002.44,0010.13,0001.38
2024-02-28 13:44:00,SystemResetWarning,0827.4,5.01,000.00,019.0,019.2,000.0,027.3,021.1,07.3,0000.0,0002.44,0009.81,0001.38
2024-02-28 13:45:00,SystemResetWarning,0827.4,5.01,000.00,019.0,019.0,000.0,027.3,020.9,07.3,0000.0,0002.42,0009.21,0001.36
2024-02-28 13:46:00,SystemResetWarning,0827.5,5.00,000.00,019.0,018.8,000.0,027.3,020.8,07.4,0000.0,0002.32,0008.47,0001.35
2024-02-28 13:47:00,SystemResetWarning,0827.9,4.99,000.00,019.0,018.6,000.0,027.3,020.7,07.4,0000.0,0002.22,0008.36,0001.34
2024-02-28 13:48:00,SystemResetWarning,0827.8,5.00,000.00,018.9,018.5,000.0,027.3,020.6,07.3,0000.0,0002.22,0008.42,0001.34
2024-02-28 13:49:00,SystemResetWarning,0827.5,5.00,000.00,018.9,018.3,000.0,027.3,020.5,07.3,0000.0,0002.16,0008.42,0001.33
2024-02-28 13:50:00,SystemResetWarning,0827.6,4.99,000.00,018.9,018.3,000.0,027.3,020.5,07.3,0000.0,0002.13,0008.36,0001.32
2024-02-28 13:51:00,SystemResetWarning,0827.7,5.00,000.00,018.8,018.2,000.0,027.2,020.5,07.4,0000.0,0002.17,0008.28,0001.30
2024-02-28 13:52:00,SystemResetWarning,0827.7,5.00,000.00,018.8,018.1,000.0,027.2,020.5,07.4,0000.0,0002.13,0007.86,0001.29
2024-02-28 13:53:00,SystemResetWarning,0827.7,5.00,000.00,018.8,018.0,000.0,027.2,020.4,07.3,0000.0,0002.02,0007.54,0001.27
2024-02-28 13:54:00,SystemResetWarning,0827.7,5.01,000.00,018.7,018.0,000.0,027.2,020.4,07.2,0000.0,0001.93,0007.38,0001.25
2024-02-28 13:55:00,SystemResetWarning,0827.7,5.00,000.00,018.7,018.0,000.0,027.2,020.4,07.2,0000.0,0001.98,0007.34,0001.25
2024-02-28 13:56:00,SystemResetWarning,0827.7,4.99,000.00,018.7,017.9,000.0,027.2,020.3,07.2,0000.0,0002.06,0007.43,0001.27
2024-02-28 13:57:00,SystemResetWarning,0827.7,5.00,000.00,018.6,017.9,000.0,027.2,020.3,07.2,0000.0,0002.05,0007.07,0001.27
2024-02-28 13:58:00,SystemResetWarning,0827.7,5.00,000.00,018.7,018.5,000.0,027.3,020.7,07.0,0000.0,0002.05,0005.92,0001.28
2024-02-28 13:59:00,SystemResetWarning,0827.8,5.01,000.00,018.9,019.3,000.0,027.4,021.2,06.9,0000.0,0001.99,0005.46,0001.28
